,,,PA_Meas_PMT16A,,PR_Meas_QMR101_102,,RH_Meas_QMH101,,SR_Meas_QMS101,,TA_Meas_QMH101,,GenWind,,GenWind,
date,time,status,PA,status,PR,status,RH,status,SR,status,TA,status,DirAvg,status,SpdAvg,
2014-02-08, 00:00:04,VALID,1007.38,VALID,0,VALID,104,VALID,0,VALID,24.4735,VALID,85,VALID,0,
2014-02-08, 00:01:04,VALID,1007.36,VALID,0,VALID,104,VALID,0,VALID,24.4735,VALID,85,VALID,0,
2014-02-08, 00:02:04,VALID,1007.33,VALID,0,VALID,104,VALID,0,VALID,24.4735,VALID,85,VALID,0,
2014-02-08, 00:03:04,VALID,1007.31,VALID,0,VALID,104,VALID,0,VALID,24.4735,VALID,85,VALID,0,
2014-02-08, 00:04:04,VALID,1007.33,VALID,0,VALID,104,VALID,0,VALID,24.454,VALID,85,VALID,0,
2014-02-08, 00:05:04,VALID,1007.3,VALID,0,VALID,104,VALID,0,VALID,24.4345,VALID,85,VALID,0,
2014-02-08, 00:06:04,VALID,1007.32,VALID,0,VALID,104,VALID,0,VALID,24.415,VALID,130,VALID,0,
2014-02-08, 00:07:04,VALID,1007.28,VALID,0,VALID,104,VALID,0,VALID,24.3956,VALID,139,VALID,0,
2014-02-08, 00:08:04,VALID,1007.26,VALID,0,VALID,104,VALID,0,VALID,24.3566,VALID,139,VALID,0,
2014-02-08, 00:09:04,VALID,1007.27,VALID,0,VALID,104,VALID,0,VALID,24.3566,VALID,139,VALID,0,
2014-02-08, 00:10:04,VALID,1007.24,VALID,0,VALID,104,VALID,0,VALID,24.3371,VALID,139,VALID,0,
2014-02-08, 00:11:04,VALID,1007.2,VALID,0,VALID,104,VALID,0,VALID,24.3566,VALID,139,VALID,0,
2014-02-08, 00:12:04,VALID,1007.18,VALID,0,VALID,104,VALID,0,VALID,24.3176,VALID,139,VALID,0,
2014-02-08, 00:13:04,VALID,1007.18,VALID,0,VALID,104,VALID,0,VALID,24.3371,VALID,139,VALID,0,
2014-02-08, 00:14:04,VALID,1007.19,VALID,0,VALID,104,VALID,0,VALID,24.3371,VALID,139,VALID,0,
2014-02-08, 00:15:04,VALID,1007.18,VALID,0,VALID,104,VALID,0,VALID,24.3176,VALID,139,VALID,0,
2014-02-08, 00:16:04,VALID,1007.15,VALID,0,VALID,104,VALID,0,VALID,24.3176,VALID,139,VALID,0,
2014-02-08, 00:17:04,VALID,1007.18,VALID,0,VALID,104,VALID,0,VALID,24.3158,VALID,139,VALID,0,
2014-02-08, 00:18:04,VALID,1007.15,VALID,0,VALID,104,VALID,0,VALID,24.3158,VALID,139,VALID,0,
2014-02-08, 00:19:04,VALID,1007.16,VALID,0,VALID,104,VALID,0,VALID,24.3176,VALID,139,VALID,0,
2014-02-08, 00:20:04,VALID,1007.15,VALID,0,VALID,104,VALID,0,VALID,24.3176,VALID,139,VALID,0,
2014-02-08, 00:21:04,VALID,1007.17,VALID,0,VALID,104,VALID,0,VALID,24.2963,VALID,139,VALID,0,
2014-02-08, 00:22:04,VALID,1007.16,VALID,0,VALID,104,VALID,0,VALID,24.3158,VALID,139,VALID,0,
2014-02-08, 00:23:04,VALID,1007.16,VALID,0,VALID,104,VALID,0,VALID,24.2963,VALID,139,VALID,0,
2014-02-08, 00:24:04,VALID,1007.18,VALID,0,VALID,104,VALID,0,VALID,24.3371,VALID,139,VALID,0,
2014-02-08, 00:25:04,VALID,1007.15,VALID,0,VALID,104,VALID,0,VALID,24.3176,VALID,139,VALID,0,
2014-02-08, 00:26:04,VALID,1007.13,VALID,0,VALID,104,VALID,0,VALID,24.2963,VALID,139,VALID,0,
2014-02-08, 00:27:04,VALID,1007.11,VALID,0,VALID,104,VALID,0,VALID,24.2981,VALID,139,VALID,0,
2014-02-08, 00:28:04,VALID,1007.11,VALID,0,VALID,104,VALID,0,VALID,24.2981,VALID,139,VALID,0,
2014-02-08, 00:29:04,VALID,1007.09,VALID,0,VALID,104,VALID,0.112112,VALID,24.2963,VALID,139,VALID,0,
2014-02-08, 00:30:04,VALID,1007.06,VALID,0,VALID,104,VALID,0,VALID,24.2981,VALID,139,VALID,0,
2014-02-08, 00:31:04,VALID,1007.06,VALID,0,VALID,104,VALID,0,VALID,24.2981,VALID,139,VALID,0,
2014-02-08, 00:32:04,VALID,1007.05,VALID,0,VALID,104,VALID,0,VALID,24.2573,VALID,139,VALID,0,
2014-02-08, 00:33:04,VALID,1007.06,VALID,0,VALID,104,VALID,0.112112,VALID,24.2786,VALID,139,VALID,0,
2014-02-08, 00:34:04,VALID,1007.05,VALID,0,VALID,104,VALID,0,VALID,24.2786,VALID,139,VALID,0,
2014-02-08, 00:35:04,VALID,1007.04,VALID,0,VALID,104,VALID,0,VALID,24.2573,VALID,139,VALID,0,
2014-02-08, 00:36:04,VALID,1007.02,VALID,0,VALID,104,VALID,0,VALID,24.2591,VALID,139,VALID,0,
2014-02-08, 00:37:04,VALID,1007,VALID,0,VALID,104,VALID,0.112112,VALID,24.2573,VALID,139,VALID,0,
2014-02-08, 00:38:04,VALID,1007,VALID,0,VALID,104,VALID,0,VALID,24.2573,VALID,139,VALID,0,
2014-02-08, 00:39:04,VALID,1006.96,VALID,0,VALID,104,VALID,0,VALID,24.2768,VALID,139,VALID,0,
2014-02-08, 00:40:04,VALID,1006.9,VALID,0,VALID,104,VALID,0,VALID,24.2573,VALID,139,VALID,0,
2014-02-08, 00:41:04,VALID,1006.89,VALID,0,VALID,104,VALID,0,VALID,24.2981,VALID,139,VALID,0,
2014-02-08, 00:42:04,VALID,1006.86,VALID,0,VALID,104,VALID,0.112112,VALID,24.2768,VALID,139,VALID,0,
2014-02-08, 00:43:04,VALID,1006.82,VALID,0,VALID,104,VALID,0,VALID,24.2786,VALID,139,VALID,0,
2014-02-08, 00:44:04,VALID,1006.79,VALID,0,VALID,104,VALID,0,VALID,24.2981,VALID,139,VALID,0,
2014-02-08, 00:45:04,VALID,1006.77,VALID,0,VALID,104,VALID,0.112112,VALID,24.2768,VALID,139,VALID,0,
2014-02-08, 00:46:04,VALID,1006.74,VALID,0,VALID,104,VALID,0,VALID,24.2768,VALID,139,VALID,0,
2014-02-08, 00:47:04,VALID,1006.7,VALID,0,VALID,104,VALID,0,VALID,24.2786,VALID,139,VALID,0,
2014-02-08, 00:48:04,VALID,1006.68,VALID,0,VALID,104,VALID,0.112112,VALID,24.2981,VALID,139,VALID,0,
2014-02-08, 00:49:04,VALID,1006.7,VALID,0,VALID,104,VALID,0.112112,VALID,24.2981,VALID,139,VALID,0,
2014-02-08, 00:50:04,VALID,1006.66,VALID,0,VALID,104,VALID,0,VALID,24.2768,VALID,139,VALID,0,
2014-02-08, 00:51:04,VALID,1006.67,VALID,0,VALID,104,VALID,0.112112,VALID,24.3176,VALID,139,VALID,0,
2014-02-08, 00:52:04,VALID,1006.63,VALID,0,VALID,104,VALID,0,VALID,24.3158,VALID,139,VALID,0,
2014-02-08, 00:53:04,VALID,1006.61,VALID,0,VALID,104,VALID,0,VALID,24.3352,VALID,139,VALID,0,
2014-02-08, 00:54:04,VALID,1006.6,VALID,0,VALID,104,VALID,0,VALID,24.3158,VALID,139,VALID,0,
2014-02-08, 00:55:04,VALID,1006.62,VALID,0,VALID,104,VALID,0,VALID,24.3352,VALID,139,VALID,0,
2014-02-08, 00:56:04,VALID,1006.61,VALID,0,VALID,104,VALID,0.112112,VALID,24.3761,VALID,139,VALID,0,
2014-02-08, 00:57:04,VALID,1006.63,VALID,0,VALID,104,VALID,0,VALID,24.3566,VALID,139,VALID,0,
2014-02-08, 00:58:04,VALID,1006.64,VALID,0,VALID,104,VALID,0,VALID,24.3761,VALID,139,VALID,0,
2014-02-08, 00:59:04,VALID,1006.63,VALID,0,VALID,104,VALID,0,VALID,24.3761,VALID,139,VALID,0,
2014-02-08, 01:00:04,VALID,1006.68,VALID,0,VALID,104,VALID,0.112112,VALID,24.3742,VALID,139,VALID,0,
2014-02-08, 01:01:04,VALID,1006.66,VALID,0,VALID,104,VALID,0,VALID,24.3937,VALID,139,VALID,0,
2014-02-08, 01:02:04,VALID,1006.68,VALID,0,VALID,104,VALID,0,VALID,24.3937,VALID,139,VALID,0,
2014-02-08, 01:03:04,VALID,1006.65,VALID,0,VALID,104,VALID,0.112112,VALID,24.3937,VALID,139,VALID,0,
2014-02-08, 01:04:04,VALID,1006.65,VALID,0,VALID,104,VALID,0,VALID,24.415,VALID,138,VALID,0,
2014-02-08, 01:05:04,VALID,1006.65,VALID,0,VALID,104,VALID,0,VALID,24.3742,VALID,138,VALID,0,
2014-02-08, 01:06:04,VALID,1006.63,VALID,0,VALID,104,VALID,0.112112,VALID,24.3956,VALID,138,VALID,0,
2014-02-08, 01:07:04,VALID,1006.64,VALID,0,VALID,104,VALID,0.112112,VALID,24.3742,VALID,138,VALID,0,
2014-02-08, 01:08:04,VALID,1006.62,VALID,0,VALID,104,VALID,0,VALID,24.3352,VALID,138,VALID,0,
2014-02-08, 01:09:04,VALID,1006.61,VALID,0,VALID,104,VALID,0,VALID,24.3176,VALID,136,VALID,0,
2014-02-08, 01:10:04,VALID,1006.63,VALID,0,VALID,104,VALID,0,VALID,24.2768,VALID,127,VALID,0,
2014-02-08, 01:11:04,VALID,1006.6,VALID,0,VALID,104,VALID,0,VALID,24.2573,VALID,127,VALID,0,
2014-02-08, 01:12:04,VALID,1006.58,VALID,0,VALID,104,VALID,0.112112,VALID,24.2768,VALID,127,VALID,0,
2014-02-08, 01:13:04,VALID,1006.6,VALID,0,VALID,104,VALID,0,VALID,24.2573,VALID,127,VALID,0,
2014-02-08, 01:14:04,VALID,1006.58,VALID,0,VALID,104,VALID,0,VALID,24.2378,VALID,127,VALID,1.10273,
2014-02-08, 01:15:04,VALID,1006.56,VALID,0,VALID,104,VALID,0,VALID,24.2202,VALID,127,VALID,0,
2014-02-08, 01:16:04,VALID,1006.56,VALID,0,VALID,104,VALID,0,VALID,24.2183,VALID,127,VALID,0,
2014-02-08, 01:17:04,VALID,1006.53,VALID,0,VALID,104,VALID,0,VALID,24.2183,VALID,127,VALID,0,
2014-02-08, 01:18:04,VALID,1006.51,VALID,0,VALID,104,VALID,0,VALID,24.2396,VALID,127,VALID,0,
2014-02-08, 01:19:04,VALID,1006.51,VALID,0,VALID,104,VALID,0,VALID,24.2396,VALID,126,VALID,0,
2014-02-08, 01:20:04,VALID,1006.48,VALID,0,VALID,104,VALID,0,VALID,24.2396,VALID,127,VALID,0,
2014-02-08, 01:21:04,VALID,1006.44,VALID,0,VALID,104,VALID,0,VALID,24.2396,VALID,125,VALID,0,
2014-02-08, 01:22:04,VALID,1006.42,VALID,0,VALID,104,VALID,0.112112,VALID,24.2396,VALID,127,VALID,0,
2014-02-08, 01:23:04,VALID,1006.4,VALID,0,VALID,104,VALID,0,VALID,24.2183,VALID,126,VALID,0,
2014-02-08, 01:24:04,VALID,1006.36,VALID,0,VALID,104,VALID,0,VALID,24.2183,VALID,126,VALID,0,
2014-02-08, 01:25:04,VALID,1006.35,VALID,0,VALID,104,VALID,0,VALID,24.2396,VALID,127,VALID,0,
2014-02-08, 01:26:04,VALID,1006.32,VALID,0,VALID,104,VALID,0,VALID,24.2396,VALID,126,VALID,0,
2014-02-08, 01:27:04,VALID,1006.3,VALID,0,VALID,104,VALID,0,VALID,24.2591,VALID,127,VALID,0,
2014-02-08, 01:28:04,VALID,1006.28,VALID,0,VALID,104,VALID,0,VALID,24.2591,VALID,127,VALID,0,
2014-02-08, 01:29:04,VALID,1006.27,VALID,0,VALID,104,VALID,0,VALID,24.2591,VALID,126,VALID,0,
2014-02-08, 01:30:04,VALID,1006.24,VALID,0,VALID,104,VALID,0,VALID,24.2591,VALID,128,VALID,0,
2014-02-08, 01:31:04,VALID,1006.21,VALID,0,VALID,104,VALID,0,VALID,24.2591,VALID,127,VALID,0,
2014-02-08, 01:32:04,VALID,1006.19,VALID,0,VALID,104,VALID,0,VALID,24.2396,VALID,127,VALID,0,
2014-02-08, 01:33:04,VALID,1006.17,VALID,0,VALID,104,VALID,0,VALID,24.2396,VALID,127,VALID,0,
2014-02-08, 01:34:04,VALID,1006.14,VALID,0,VALID,104,VALID,0.112112,VALID,24.2202,VALID,126,VALID,0,
2014-02-08, 01:35:04,VALID,1006.11,VALID,0,VALID,104,VALID,0,VALID,24.2202,VALID,127,VALID,0,
2014-02-08, 01:36:04,VALID,1006.1,VALID,0,VALID,104,VALID,0,VALID,24.2007,VALID,127,VALID,0,
2014-02-08, 01:37:04,VALID,1006.09,VALID,0,VALID,104,VALID,0,VALID,24.1793,VALID,126,VALID,0,
2014-02-08, 01:38:04,VALID,1006.08,VALID,0,VALID,104,VALID,0,VALID,24.1812,VALID,125,VALID,0,
2014-02-08, 01:39:04,VALID,1006.08,VALID,0,VALID,104,VALID,0,VALID,24.1812,VALID,127,VALID,0,
2014-02-08, 01:40:04,VALID,1006.09,VALID,0,VALID,104,VALID,0,VALID,24.1812,VALID,126,VALID,0,
2014-02-08, 01:41:04,VALID,1006.05,VALID,0,VALID,104,VALID,0,VALID,24.1812,VALID,126,VALID,0,
2014-02-08, 01:42:04,VALID,1006.05,VALID,0,VALID,104,VALID,0,VALID,24.1812,VALID,127,VALID,0,
2014-02-08, 01:43:04,VALID,1006.03,VALID,0,VALID,104,VALID,0,VALID,24.1404,VALID,126,VALID,0,
2014-02-08, 01:44:04,VALID,1006.02,VALID,0,VALID,104,VALID,0,VALID,24.1014,VALID,126,VALID,0,
2014-02-08, 01:45:04,VALID,1006.02,VALID,0,VALID,104,VALID,0,VALID,24.1227,VALID,127,VALID,0,
2014-02-08, 01:46:04,VALID,1006.03,VALID,0,VALID,104,VALID,0,VALID,24.1227,VALID,127,VALID,0,
2014-02-08, 01:47:04,VALID,1006.04,VALID,0,VALID,104,VALID,0,VALID,24.1227,VALID,126,VALID,0,
2014-02-08, 01:48:04,VALID,1006.06,VALID,0,VALID,104,VALID,0,VALID,24.0624,VALID,127,VALID,0,
2014-02-08, 01:49:04,VALID,1006.06,VALID,0,VALID,104,VALID,0,VALID,24.0837,VALID,127,VALID,0,
2014-02-08, 01:50:04,VALID,1006.1,VALID,0,VALID,104,VALID,0,VALID,24.0429,VALID,127,VALID,0,
2014-02-08, 01:51:04,VALID,1006.14,VALID,0,VALID,104,VALID,0,VALID,24.0643,VALID,126,VALID,0,
2014-02-08, 01:52:04,VALID,1006.13,VALID,0,VALID,104,VALID,0,VALID,24.0643,VALID,127,VALID,0,
2014-02-08, 01:53:04,VALID,1006.15,VALID,0,VALID,104,VALID,0,VALID,24.0643,VALID,126,VALID,0,
2014-02-08, 01:54:04,VALID,1006.13,VALID,0,VALID,104,VALID,0,VALID,24.0448,VALID,126,VALID,0,
2014-02-08, 01:55:04,VALID,1006.1,VALID,0,VALID,104,VALID,0,VALID,24.0643,VALID,127,VALID,0,
2014-02-08, 01:56:04,VALID,1006.12,VALID,0,VALID,104,VALID,0,VALID,24.0448,VALID,127,VALID,0,
2014-02-08, 01:57:04,VALID,1006.11,VALID,0,VALID,104,VALID,0,VALID,24.0429,VALID,126,VALID,0,
2014-02-08, 01:58:04,VALID,1006.12,VALID,0,VALID,104,VALID,0,VALID,24.0235,VALID,126,VALID,0,
2014-02-08, 01:59:04,VALID,1006.11,VALID,0,VALID,104,VALID,0,VALID,24.0643,VALID,126,VALID,0,
2014-02-08, 02:00:04,VALID,1006.12,VALID,0,VALID,104,VALID,0,VALID,24.0429,VALID,125,VALID,0,
2014-02-08, 02:01:04,VALID,1006.14,VALID,0,VALID,104,VALID,0,VALID,24.0448,VALID,127,VALID,0,
2014-02-08, 02:02:04,VALID,1006.13,VALID,0,VALID,104,VALID,0,VALID,24.004,VALID,70,VALID,0,
2014-02-08, 02:03:04,VALID,1006.15,VALID,0,VALID,104,VALID,0,VALID,24.004,VALID,70,VALID,0,
2014-02-08, 02:04:04,VALID,1006.09,VALID,0,VALID,104,VALID,0,VALID,24.0448,VALID,71,VALID,0,
2014-02-08, 02:05:04,VALID,1006.08,VALID,0,VALID,104,VALID,0,VALID,24.0253,VALID,70,VALID,0,
2014-02-08, 02:06:04,VALID,1006.04,VALID,0,VALID,104,VALID,0,VALID,24.0253,VALID,69,VALID,0,
2014-02-08, 02:07:04,VALID,1006.02,VALID,0,VALID,104,VALID,0,VALID,24.0253,VALID,71,VALID,0,
2014-02-08, 02:08:04,VALID,1006.02,VALID,0,VALID,104,VALID,0,VALID,24.004,VALID,70,VALID,0,
2014-02-08, 02:09:04,VALID,1006,VALID,0,VALID,104,VALID,0,VALID,24.0253,VALID,70,VALID,0,
2014-02-08, 02:10:04,VALID,1006.01,VALID,0,VALID,104,VALID,0,VALID,24.0253,VALID,70,VALID,0,
2014-02-08, 02:11:04,VALID,1006.01,VALID,0,VALID,104,VALID,0,VALID,24.0271,VALID,70,VALID,0,
2014-02-08, 02:12:04,VALID,1006,VALID,0,VALID,104,VALID,0,VALID,24.0058,VALID,58,VALID,0,
2014-02-08, 02:13:04,VALID,1005.99,VALID,0,VALID,104,VALID,0,VALID,24.0058,VALID,60,VALID,0,
2014-02-08, 02:14:04,VALID,1005.97,VALID,0,VALID,104,VALID,0,VALID,24.0058,VALID,59,VALID,0,
2014-02-08, 02:15:04,VALID,1005.97,VALID,0,VALID,104,VALID,0,VALID,24.0058,VALID,59,VALID,0,
2014-02-08, 02:16:04,VALID,1005.97,VALID,0,VALID,104,VALID,0,VALID,24.0058,VALID,59,VALID,0,
2014-02-08, 02:17:04,VALID,1005.98,VALID,0,VALID,104,VALID,0,VALID,23.9863,VALID,58,VALID,0,
2014-02-08, 02:18:04,VALID,1006,VALID,0,VALID,104,VALID,0,VALID,23.965,VALID,58,VALID,0,
2014-02-08, 02:19:04,VALID,1006.01,VALID,0,VALID,104,VALID,0,VALID,23.9863,VALID,59,VALID,0,
2014-02-08, 02:20:04,VALID,1006.04,VALID,0,VALID,104,VALID,0,VALID,24.0058,VALID,59,VALID,0,
2014-02-08, 02:21:04,VALID,1006.03,VALID,0,VALID,104,VALID,0,VALID,24.0058,VALID,59,VALID,0,
2014-02-08, 02:22:04,VALID,1006.04,VALID,0,VALID,104,VALID,0,VALID,24.0058,VALID,59,VALID,0,
2014-02-08, 02:23:04,VALID,1006,VALID,0,VALID,104,VALID,0,VALID,24.0058,VALID,21,VALID,0,
2014-02-08, 02:24:04,VALID,1006.01,VALID,0,VALID,104,VALID,0,VALID,24.0058,VALID,21,VALID,0,
2014-02-08, 02:25:04,VALID,1005.98,VALID,0,VALID,104,VALID,0,VALID,24.0058,VALID,21,VALID,0,
2014-02-08, 02:26:04,VALID,1006,VALID,0,VALID,104,VALID,0,VALID,23.9863,VALID,21,VALID,0,
2014-02-08, 02:27:04,VALID,1005.99,VALID,0,VALID,104,VALID,0,VALID,24.0058,VALID,21,VALID,0,
2014-02-08, 02:28:04,VALID,1005.98,VALID,0,VALID,104,VALID,0,VALID,24.0253,VALID,21,VALID,0,
2014-02-08, 02:29:04,VALID,1006.01,VALID,0,VALID,104,VALID,0,VALID,24.0253,VALID,21,VALID,0,
2014-02-08, 02:30:04,VALID,1006.02,VALID,0,VALID,104,VALID,0,VALID,24.0253,VALID,21,VALID,0,
2014-02-08, 02:31:04,VALID,1006.02,VALID,0,VALID,104,VALID,0,VALID,24.0253,VALID,21,VALID,0,
2014-02-08, 02:32:04,VALID,1006,VALID,0,VALID,104,VALID,0,VALID,24.0253,VALID,21,VALID,0,
2014-02-08, 02:33:04,VALID,1005.99,VALID,0,VALID,104,VALID,0,VALID,24.0271,VALID,21,VALID,0,
2014-02-08, 02:34:04,VALID,1006.03,VALID,0,VALID,104,VALID,0.112112,VALID,23.9845,VALID,21,VALID,0,
2014-02-08, 02:35:04,VALID,1006.06,VALID,0,VALID,104,VALID,0,VALID,24.0058,VALID,20,VALID,0,
2014-02-08, 02:36:04,VALID,1006.07,VALID,0,VALID,104,VALID,0,VALID,24.0058,VALID,22,VALID,0,
2014-02-08, 02:37:04,VALID,1006.09,VALID,0,VALID,104,VALID,0,VALID,24.0058,VALID,21,VALID,0,
2014-02-08, 02:38:04,VALID,1006.12,VALID,0,VALID,104,VALID,0,VALID,24.0253,VALID,21,VALID,0,
2014-02-08, 02:39:04,VALID,1006.13,VALID,0,VALID,104,VALID,0,VALID,24.0058,VALID,21,VALID,0,
2014-02-08, 02:40:04,VALID,1006.12,VALID,0,VALID,104,VALID,0,VALID,24.0253,VALID,21,VALID,0,
2014-02-08, 02:41:04,VALID,1006.09,VALID,0,VALID,104,VALID,0,VALID,24.0253,VALID,21,VALID,0,
2014-02-08, 02:42:04,VALID,1006.11,VALID,0,VALID,104,VALID,0,VALID,24.0448,VALID,21,VALID,0,
2014-02-08, 02:43:04,VALID,1006.07,VALID,0,VALID,104,VALID,0,VALID,24.0235,VALID,20,VALID,0,
2014-02-08, 02:44:04,VALID,1006.06,VALID,0,VALID,104,VALID,0,VALID,24.0448,VALID,21,VALID,0,
2014-02-08, 02:45:04,VALID,1006.05,VALID,0,VALID,104,VALID,0,VALID,24.0643,VALID,21,VALID,0,
2014-02-08, 02:46:04,VALID,1006.05,VALID,0,VALID,104,VALID,0,VALID,24.0643,VALID,21,VALID,0,
2014-02-08, 02:47:04,VALID,1006.02,VALID,0,VALID,104,VALID,0,VALID,24.1032,VALID,21,VALID,0,
2014-02-08, 02:48:04,VALID,1006.05,VALID,0,VALID,104,VALID,0,VALID,24.1032,VALID,21,VALID,0,
2014-02-08, 02:49:04,VALID,1006.07,VALID,0,VALID,104,VALID,0,VALID,24.1227,VALID,21,VALID,0,
2014-02-08, 02:50:04,VALID,1006.04,VALID,0,VALID,104,VALID,0.112112,VALID,24.1227,VALID,21,VALID,0,
2014-02-08, 02:51:04,VALID,1006.04,VALID,0,VALID,104,VALID,0,VALID,24.1227,VALID,21,VALID,0,
2014-02-08, 02:52:04,VALID,1006.03,VALID,0,VALID,104,VALID,0,VALID,24.1227,VALID,21,VALID,0,
2014-02-08, 02:53:04,VALID,1006,VALID,0,VALID,104,VALID,0,VALID,24.0837,VALID,21,VALID,0,
2014-02-08, 02:54:04,VALID,1005.99,VALID,0,VALID,104,VALID,0,VALID,24.0837,VALID,21,VALID,0,
2014-02-08, 02:55:04,VALID,1005.99,VALID,0,VALID,104,VALID,0,VALID,24.0643,VALID,21,VALID,0,
2014-02-08, 02:56:04,VALID,1006.01,VALID,0,VALID,104,VALID,0,VALID,24.0448,VALID,21,VALID,0,
2014-02-08, 02:57:04,VALID,1006,VALID,0,VALID,104,VALID,0,VALID,24.0253,VALID,20,VALID,0,
2014-02-08, 02:58:04,VALID,1005.98,VALID,0,VALID,104,VALID,0,VALID,24.0253,VALID,21,VALID,0,
2014-02-08, 02:59:04,VALID,1006.01,VALID,0,VALID,104,VALID,0.112112,VALID,23.9845,VALID,21,VALID,0,
2014-02-08, 03:00:04,VALID,1006.01,VALID,0,VALID,104,VALID,0,VALID,24.0058,VALID,21,VALID,0,
2014-02-08, 03:01:04,VALID,1005.99,VALID,0,VALID,104,VALID,0,VALID,24.0058,VALID,21,VALID,0,
2014-02-08, 03:02:04,VALID,1006.02,VALID,0,VALID,104,VALID,0,VALID,24.0058,VALID,21,VALID,0,
2014-02-08, 03:03:04,VALID,1006.03,VALID,0,VALID,104,VALID,0,VALID,24.0058,VALID,21,VALID,0,
2014-02-08, 03:04:04,VALID,1006.02,VALID,0,VALID,104,VALID,0,VALID,23.9863,VALID,21,VALID,0,
2014-02-08, 03:05:04,VALID,1006.04,VALID,0,VALID,104,VALID,0,VALID,23.9863,VALID,21,VALID,0,
2014-02-08, 03:06:04,VALID,1006.02,VALID,0,VALID,104,VALID,0,VALID,23.9863,VALID,21,VALID,0,
2014-02-08, 03:07:04,VALID,1006.05,VALID,0,VALID,104,VALID,0.112112,VALID,24.004,VALID,21,VALID,0,
2014-02-08, 03:08:04,VALID,1006.07,VALID,0,VALID,104,VALID,0,VALID,24.0448,VALID,21,VALID,0,
2014-02-08, 03:09:04,VALID,1006.07,VALID,0,VALID,104,VALID,0,VALID,24.0661,VALID,21,VALID,0,
2014-02-08, 03:10:04,VALID,1006.06,VALID,0,VALID,104,VALID,0,VALID,24.0253,VALID,21,VALID,0,
2014-02-08, 03:11:04,VALID,1006.07,VALID,0,VALID,104,VALID,0,VALID,24.0253,VALID,21,VALID,0,
2014-02-08, 03:12:04,VALID,1006.04,VALID,0,VALID,104,VALID,0,VALID,24.0253,VALID,21,VALID,0,
2014-02-08, 03:13:04,VALID,1006.07,VALID,0,VALID,104,VALID,0,VALID,24.0058,VALID,21,VALID,0,
2014-02-08, 03:14:04,VALID,1006.05,VALID,0,VALID,104,VALID,0,VALID,24.004,VALID,21,VALID,0,
2014-02-08, 03:15:04,VALID,1006.03,VALID,0,VALID,104,VALID,0.112112,VALID,24.0253,VALID,21,VALID,0,
2014-02-08, 03:16:04,VALID,1006.04,VALID,0,VALID,104,VALID,0,VALID,24.0058,VALID,21,VALID,0,
2014-02-08, 03:17:04,VALID,1006.04,VALID,0,VALID,104,VALID,0,VALID,24.0448,VALID,21,VALID,0,
2014-02-08, 03:18:04,VALID,1006.04,VALID,0,VALID,104,VALID,0,VALID,24.0448,VALID,21,VALID,0,
2014-02-08, 03:19:04,VALID,1006.04,VALID,0,VALID,104,VALID,0,VALID,24.0448,VALID,21,VALID,0,
2014-02-08, 03:20:04,VALID,1006.05,VALID,0,VALID,104,VALID,0,VALID,24.0448,VALID,21,VALID,0,
2014-02-08, 03:21:04,VALID,1006.05,VALID,0,VALID,104,VALID,0,VALID,24.0253,VALID,21,VALID,0,
2014-02-08, 03:22:04,VALID,1006.01,VALID,0,VALID,104,VALID,0,VALID,24.0253,VALID,21,VALID,0,
2014-02-08, 03:23:04,VALID,1006.04,VALID,0,VALID,104,VALID,0,VALID,24.0253,VALID,21,VALID,0,
2014-02-08, 03:24:04,VALID,1006.04,VALID,0,VALID,104,VALID,0,VALID,24.0253,VALID,21,VALID,0,
2014-02-08, 03:25:04,VALID,1006.02,VALID,0,VALID,104,VALID,0,VALID,24.0058,VALID,21,VALID,0,
2014-02-08, 03:26:04,VALID,1006.04,VALID,0,VALID,104,VALID,0,VALID,24.0253,VALID,21,VALID,0,
2014-02-08, 03:27:04,VALID,1006.05,VALID,0,VALID,104,VALID,0,VALID,24.0253,VALID,21,VALID,0,
2014-02-08, 03:28:04,VALID,1006.04,VALID,0,VALID,104,VALID,0,VALID,24.0448,VALID,21,VALID,0,
2014-02-08, 03:29:04,VALID,1006.07,VALID,0,VALID,104,VALID,0,VALID,24.0448,VALID,21,VALID,0,
2014-02-08, 03:30:04,VALID,1006.07,VALID,0,VALID,104,VALID,0,VALID,24.0643,VALID,21,VALID,0,
2014-02-08, 03:31:04,VALID,1006.08,VALID,0,VALID,104,VALID,0,VALID,24.0643,VALID,21,VALID,0,
2014-02-08, 03:32:04,VALID,1006.12,VALID,0,VALID,104,VALID,0,VALID,24.0643,VALID,21,VALID,0,
2014-02-08, 03:33:04,VALID,1006.08,VALID,0,VALID,104,VALID,0,VALID,24.0643,VALID,21,VALID,0,
2014-02-08, 03:34:04,VALID,1006.09,VALID,0,VALID,104,VALID,0,VALID,24.0643,VALID,21,VALID,0,
2014-02-08, 03:35:04,VALID,1006.11,VALID,0,VALID,104,VALID,0,VALID,24.0448,VALID,21,VALID,0,
2014-02-08, 03:36:04,VALID,1006.12,VALID,0,VALID,104,VALID,0,VALID,24.0448,VALID,21,VALID,0,
2014-02-08, 03:37:04,VALID,1006.11,VALID,0,VALID,104,VALID,0,VALID,24.0448,VALID,21,VALID,0,
2014-02-08, 03:38:04,VALID,1006.13,VALID,0,VALID,104,VALID,0,VALID,24.0661,VALID,21,VALID,0,
2014-02-08, 03:39:04,VALID,1006.13,VALID,0,VALID,104,VALID,0,VALID,24.0448,VALID,20,VALID,0,
2014-02-08, 03:40:04,VALID,1006.13,VALID,0,VALID,104,VALID,0,VALID,24.0253,VALID,21,VALID,0,
2014-02-08, 03:41:04,VALID,1006.13,VALID,0,VALID,104,VALID,0,VALID,24.0448,VALID,22,VALID,0,
2014-02-08, 03:42:04,VALID,1006.14,VALID,0,VALID,104,VALID,0,VALID,24.0253,VALID,21,VALID,0,
2014-02-08, 03:43:04,VALID,1006.14,VALID,0,VALID,104,VALID,0,VALID,24.0271,VALID,20,VALID,0,
2014-02-08, 03:44:04,VALID,1006.15,VALID,0,VALID,104,VALID,0,VALID,23.9863,VALID,21,VALID,0,
2014-02-08, 03:45:04,VALID,1006.17,VALID,0,VALID,104,VALID,0,VALID,23.9881,VALID,21,VALID,0,
2014-02-08, 03:46:04,VALID,1006.16,VALID,0,VALID,104,VALID,0,VALID,23.9668,VALID,21,VALID,0,
2014-02-08, 03:47:04,VALID,1006.19,VALID,0,VALID,104,VALID,0,VALID,23.9668,VALID,21,VALID,0,
2014-02-08, 03:48:04,VALID,1006.2,VALID,0,VALID,104,VALID,0,VALID,23.9473,VALID,21,VALID,0,
2014-02-08, 03:49:04,VALID,1006.18,VALID,0,VALID,104,VALID,0,VALID,23.9473,VALID,21,VALID,0,
2014-02-08, 03:50:04,VALID,1006.18,VALID,0,VALID,104,VALID,0,VALID,23.9668,VALID,21,VALID,0,
2014-02-08, 03:51:04,VALID,1006.19,VALID,0,VALID,104,VALID,0,VALID,23.9668,VALID,21,VALID,0,
2014-02-08, 03:52:04,VALID,1006.18,VALID,0,VALID,104,VALID,0,VALID,23.9668,VALID,21,VALID,0,
2014-02-08, 03:53:04,VALID,1006.22,VALID,0,VALID,104,VALID,0,VALID,24.0076,VALID,20,VALID,0,
2014-02-08, 03:54:04,VALID,1006.22,VALID,0,VALID,104,VALID,0,VALID,23.9863,VALID,21,VALID,0,
2014-02-08, 03:55:04,VALID,1006.2,VALID,0,VALID,104,VALID,0,VALID,23.9668,VALID,21,VALID,0,
2014-02-08, 03:56:04,VALID,1006.25,VALID,0,VALID,104,VALID,0,VALID,23.9863,VALID,21,VALID,0,
2014-02-08, 03:57:04,VALID,1006.24,VALID,0,VALID,104,VALID,0,VALID,23.9668,VALID,21,VALID,0,
2014-02-08, 03:58:04,VALID,1006.24,VALID,0,VALID,104,VALID,0,VALID,23.9455,VALID,21,VALID,0,
2014-02-08, 03:59:04,VALID,1006.25,VALID,0,VALID,104,VALID,0,VALID,23.9668,VALID,21,VALID,0,
2014-02-08, 04:00:04,VALID,1006.25,VALID,0,VALID,104,VALID,0,VALID,23.9863,VALID,21,VALID,0,
2014-02-08, 04:01:04,VALID,1006.24,VALID,0,VALID,104,VALID,0,VALID,23.9668,VALID,21,VALID,0,
2014-02-08, 04:02:04,VALID,1006.24,VALID,0,VALID,104,VALID,0,VALID,23.9668,VALID,21,VALID,0,
2014-02-08, 04:03:04,VALID,1006.24,VALID,0,VALID,104,VALID,0,VALID,23.9668,VALID,21,VALID,0,
2014-02-08, 04:04:04,VALID,1006.25,VALID,0,VALID,104,VALID,0,VALID,23.9455,VALID,21,VALID,0,
2014-02-08, 04:05:04,VALID,1006.25,VALID,0,VALID,104,VALID,0,VALID,23.9473,VALID,21,VALID,0,
2014-02-08, 04:06:04,VALID,1006.28,VALID,0,VALID,104,VALID,0,VALID,23.926,VALID,21,VALID,0,
2014-02-08, 04:07:04,VALID,1006.24,VALID,0,VALID,104,VALID,0,VALID,23.9278,VALID,21,VALID,0,
2014-02-08, 04:08:04,VALID,1006.26,VALID,0,VALID,104,VALID,0,VALID,23.9084,VALID,21,VALID,0,
2014-02-08, 04:09:04,VALID,1006.24,VALID,0,VALID,104,VALID,0,VALID,23.9084,VALID,21,VALID,0,